[[{"header":{"parameterUnit":"m.s-1","parameterCategory":1,"la1":30.2991,"la2":30.254,"lo1":-89.0895,"lo2":-89.0444,"dy":0.0017,"dx":0.0017,"nx":28,"ny":28,"refTime":"2025-08-17T03:00:00:Z","depth":0,"parameterNumber":2,"parameterNumberName":"U-component_of_WINDS"},"data":[0,0,0,0,0,0,0,0,0,0,0,0,0,0,0,0,0,0,0,0,0,0,0,0,0,0,0,0,0,0,0,0,0,0,0,0,0,0,0,0,0,0,0,0,0,0,0,0,0,0,0,0,0,0,0,0,0,0,-0.2427,-0.2426,0,-0.2329,-0.2328,-0.2327,-0.233,-0.2331,-0.2333,-0.2334,-0.2232,-0.2229,-0.2225,0,0,0,0,0,0,0,0,0,0,0,0,0,-0.2614,-0.2611,-0.2427,-0.2426,-0.2424,-0.2329,-0.2328,-0.2327,-0.233,-0.2331,-0.2333,-0.2335,-0.2234,-0.2229,-0.2224,0,0,0,0,0,0,0,0,0,0,0,0,0,-0.2526,-0.261,-0.2427,-0.2414,-0.2412,-0.233,-0.2328,-0.2326,-0.2329,-0.2331,-0.2333,-0.2335,-0.2235,-0.2229,-0.2224,-0.2146,0,0,-0.2205,-0.2203,0,0,0,0,0,0,0,0,-0.2531,-0.252,-0.2418,-0.2415,-0.2413,-0.2344,-0.2357,-0.2266,-0.2329,-0.2361,-0.2334,-0.2336,-0.2268,-0.2259,-0.2236,-0.2141,-0.2137,-0.2205,-0.2201,-0.2199,-0.2197,0,0,0,0,0,0,0,-0.2538,-0.2524,-0.2388,-0.2416,-0.2413,-0.2413,-0.2403,-0.234,-0.2304,-0.2358,-0.2358,-0.2347,-0.2267,-0.2242,-0.2234,-0.2136,-0.2205,-0.22,-0.2196,-0.2194,-0.1972,-0.197,0,0,0,0,0,0,-0.2546,-0.2529,-0.2391,-0.2385,-0.2478,-0.2408,-0.2397,-0.2364,-0.2305,-0.2298,-0.2345,-0.2347,-0.2251,-0.2241,-0.223,-0.2136,-0.2199,-0.2193,-0.219,-0.1975,-0.1972,-0.1969,0,0,0,0,0,0,-0.255,-0.2534,-0.2395,-0.2457,-0.2439,-0.2403,-0.2366,-0.2361,-0.2336,-0.2295,-0.2288,-0.2327,-0.2252,-0.2239,-0.2167,-0.2133,-0.219,-0.2185,-0.1977,-0.1974,-0.1971,-0.1947,0,0,0,0,0,0,-0.2556,-0.2536,-0.2506,-0.2456,-0.2436,-0.2334,-0.2364,-0.2357,-0.2326,-0.2328,-0.2276,-0.2269,-0.2253,-0.2176,-0.2161,-0.2125,-0.218,-0.198,-0.1976,-0.1972,-0.195,-0.1943,-0.1936,0,0,0,0,0,-0.2563,-0.2503,-0.2505,-0.2488,-0.2398,-0.2332,-0.232,-0.2303,-0.2323,-0.2293,-0.2267,-0.2271,-0.2139,-0.2169,-0.2152,-0.2114,-0.1983,-0.1977,-0.1972,-0.1954,-0.1944,-0.1936,0,0,0,0,0,0,-0.2549,-0.2496,-0.2497,-0.242,-0.238,-0.2333,-0.2294,-0.2294,-0.2248,-0.2251,-0.2232,-0.222,-0.2149,-0.2124,-0.2159,-0.2036,-0.2063,-0.2054,-0.2055,-0.2046,-0.2039,-0.2046,-0.2175,0,0,0,0,0,-0.2537,-0.2488,-0.2444,-0.238,-0.236,-0.233,-0.2301,-0.2291,-0.225,-0.2233,-0.2201,-0.216,-0.2109,-0.2076,-0.2027,-0.1947,-0.1936,-0.1913,-0.1906,-0.19,-0.1892,-0.1849,-0.1838,-0.1952,-0.1952,-0.1953,0,0,-0.2511,-0.2477,-0.2446,-0.2376,-0.2344,-0.2294,-0.2316,-0.2261,-0.2223,-0.2224,-0.2155,-0.213,-0.2083,-0.2007,-0.1972,-0.1984,-0.1858,-0.1893,-0.1889,-0.1885,-0.1842,-0.1831,-0.1822,-0.1949,-0.195,-0.195,0,0,-0.2439,-0.2408,-0.2351,-0.2319,-0.2271,-0.2252,-0.2238,-0.219,-0.2174,-0.2104,-0.2104,-0.2058,-0.1971,-0.1938,-0.1909,-0.1825,-0.1827,-0.1809,-0.1772,-0.173,-0.1721,-0.1713,-0.1683,-0.1672,-0.1802,-0.1802,-0.1802,0,-0.2413,-0.2337,-0.2321,-0.2266,-0.2235,-0.2235,-0.2177,-0.2146,-0.2084,-0.2063,-0.2078,-0.1969,-0.1937,-0.1853,-0.1833,-0.181,-0.1794,-0.1815,-0.1724,-0.1715,-0.1707,-0.1679,-0.1667,-0.18,-0.1801,-0.1801,-0.1801,0,-0.2308,-0.2255,-0.2215,-0.2156,-0.212,-0.2064,-0.204,-0.2005,-0.1999,-0.1979,-0.1908,-0.1869,-0.1813,-0.1792,-0.1786,-0.1707,-0.1717,-0.1728,-0.1755,-0.1695,-0.1668,-0.1656,-0.1798,-0.1798,-0.1799,-0.1799,0,0,-0.2223,-0.2157,-0.2143,-0.2116,-0.2063,-0.2022,-0.1966,-0.1911,-0.1882,-0.184,-0.1792,-0.1719,-0.1729,-0.1696,-0.1686,-0.1649,-0.1584,-0.1664,-0.1663,-0.1651,-0.1496,-0.1488,-0.1476,-0.1585,-0.1583,-0.1582,-0.15,0,-0.2146,-0.2046,-0.2031,-0.1943,-0.1894,-0.1893,-0.1844,-0.1806,-0.1785,-0.174,-0.1717,-0.1666,-0.1683,-0.1663,-0.1626,-0.16,-0.1553,-0.1606,-0.1541,-0.1538,-0.1552,-0.1461,-0.1452,-0.1378,-0.1489,-0.1487,-0.1486,0,-0.2041,-0.1997,-0.1905,-0.1859,-0.1838,-0.1794,-0.1743,-0.17,-0.1657,-0.1645,-0.1609,-0.1603,-0.1544,-0.1574,-0.1493,-0.1529,-0.1502,-0.1485,-0.1482,-0.1475,-0.1509,-0.1452,-0.1353,-0.1342,-0.1469,-0.147,-0.1472,0,-0.1989,-0.1906,-0.184,-0.1817,-0.1762,-0.1732,-0.1707,-0.1666,-0.1635,-0.159,-0.1569,-0.1518,-0.149,-0.145,-0.1431,-0.1454,-0.1351,-0.1379,-0.1339,-0.1339,-0.1317,-0.1319,-0.1212,-0.1299,-0.1299,-0.13,-0.13,0,-0.1904,-0.1847,-0.1816,-0.1776,-0.1712,-0.1695,-0.1633,-0.1609,-0.1573,-0.1528,-0.1523,-0.1481,-0.1458,-0.1412,-0.1396,-0.1331,-0.1319,-0.1307,-0.1303,-0.1307,-0.1309,-0.1289,-0.1293,-0.1297,-0.1297,-0.1298,-0.1298,0,-0.1834,-0.1811,-0.174,-0.1694,-0.1681,-0.1636,-0.1597,-0.1557,-0.1537,-0.148,-0.1465,-0.1433,-0.1379,-0.1356,-0.1289,-0.1278,-0.1204,-0.1204,-0.1219,-0.1218,-0.1179,-0.1183,-0.1056,-0.1039,-0.1137,-0.1136,-0.1135,0,-0.1781,-0.1738,-0.1688,-0.1657,-0.1632,-0.1583,-0.1551,-0.1532,-0.1499,-0.1447,-0.1414,-0.136,-0.1315,-0.1229,-0.1199,-0.1148,-0.1147,-0.1106,-0.114,-0.1145,-0.1147,-0.115,-0.1146,-0.11,-0.1099,-0.1099,-0.1098,0,-0.169,-0.1681,-0.1635,-0.1585,-0.1547,-0.1506,-0.1467,-0.1442,-0.1417,-0.138,-0.1324,-0.129,-0.1222,-0.1169,-0.1116,-0.109,-0.109,-0.1088,-0.1076,-0.1079,-0.109,-0.1084,-0.1202,-0.1091,-0.1091,-0.1092,-0.1092,-0.1093,-0.1627,-0.1588,-0.1547,-0.1496,-0.1465,-0.1428,-0.1389,-0.1364,-0.1318,-0.1261,-0.1253,-0.1194,-0.1153,-0.1082,-0.1055,-0.1008,-0.1018,-0.1001,-0.0997,-0.0993,-0.099,-0.1097,-0.0998,-0.0999,-0.0999,-0.0999,-0.0999,0,-0.1535,-0.1509,-0.1462,-0.1407,-0.1367,-0.1371,-0.1327,-0.1294,-0.1242,-0.1203,-0.116,-0.1097,-0.1045,-0.1012,-0.0959,-0.0929,-0.0927,-0.0916,-0.0918,-0.0912,-0.0984,-0.1,-0.0918,-0.0918,-0.0918,-0.0918,-0.0918,-0.0918,-0.1483,-0.1418,-0.1404,-0.1324,-0.1298,-0.124,-0.1215,-0.1182,-0.1151,-0.1081,-0.1038,-0.1017,-0.098,-0.0925,-0.0878,-0.0869,-0.085,-0.0838,-0.083,-0.0898,-0.0907,-0.0915,-0.093,-0.0834,-0.0834,-0.0762,-0.0762,-0.0761]},{"header":{"parameterUnit":"m.s-1","parameterCategory":1,"la1":30.2991,"la2":30.254,"lo1":-89.0895,"lo2":-89.0444,"dy":0.0017,"dx":0.0017,"nx":28,"ny":28,"refTime":"2025-08-17T03:00:00:Z","depth":0,"parameterNumber":3,"parameterNumberName":"V-component_of_WINDS"},"data":[0,0,0,0,0,0,0,0,0,0,0,0,0,0,0,0,0,0,0,0,0,0,0,0,0,0,0,0,0,0,0,0,0,0,0,0,0,0,0,0,0,0,0,0,0,0,0,0,0,0,0,0,0,0,0,0,0,0,-0.0085,-0.0084,0,0.0016,0.0017,0.0018,0.0036,0.0035,0.0034,0.0034,0.0136,0.0139,0.0143,0,0,0,0,0,0,0,0,0,0,0,0,0,-0.0266,-0.0263,-0.0085,-0.0084,-0.0082,0.0016,0.0017,0.0019,0.0036,0.0035,0.0034,0.0033,0.0135,0.0139,0.0143,0,0,0,0,0,0,0,0,0,0,0,0,0,-0.0178,-0.0261,-0.0085,-0.0062,-0.0059,0.0016,0.0017,0.0019,0.0036,0.0035,0.0034,0.0033,0.0133,0.0138,0.0143,0.0201,0,0,0.016,0.0162,0,0,0,0,0,0,0,0,-0.0183,-0.0172,-0.0066,-0.0063,-0.006,0.0012,-0.0009,0.008,0.0037,0.0,0.0034,0.0032,0.0096,0.0104,0.0125,0.0206,0.021,0.016,0.0163,0.0165,0.0167,0,0,0,0,0,0,0,-0.0189,-0.0176,-0.0045,-0.0065,-0.0061,-0.0057,-0.0046,0.0008,0.0054,0.0003,0.0005,0.0017,0.0097,0.012,0.0128,0.0212,0.016,0.0164,0.0168,0.017,0.0339,0.0341,0,0,0,0,0,0,-0.0199,-0.0181,-0.0048,-0.0042,-0.0126,-0.0053,-0.0041,-0.001,0.0053,0.0062,0.0018,0.0017,0.0112,0.0122,0.0132,0.02,0.0165,0.017,0.0173,0.0338,0.034,0.0341,0,0,0,0,0,0,-0.0203,-0.0188,-0.0052,-0.0111,-0.0094,-0.0049,-0.0014,-0.0007,0.0016,0.0064,0.0072,0.0033,0.0111,0.0124,0.0183,0.0204,0.0173,0.0177,0.0336,0.0339,0.034,0.0339,0,0,0,0,0,0,-0.0208,-0.0189,-0.0166,-0.0111,-0.0091,-0.0002,-0.0012,-0.0004,0.0025,0.0026,0.0081,0.0089,0.0111,0.0175,0.0188,0.0211,0.0182,0.0335,0.0337,0.034,0.0338,0.0341,0.0344,0,0,0,0,0,-0.0215,-0.0169,-0.0164,-0.0148,-0.006,-0.0,0.0011,0.0037,0.0027,0.005,0.008,0.0087,0.02,0.0181,0.0196,0.022,0.0333,0.0337,0.034,0.0336,0.034,0.0344,0,0,0,0,0,0,-0.0222,-0.0161,-0.0155,-0.009,-0.0051,0.0003,0.0033,0.0041,0.0084,0.0083,0.0112,0.0124,0.018,0.0206,0.0184,0.0277,0.0266,0.0272,0.0258,0.0262,0.0265,0.0257,0.0186,0,0,0,0,0,-0.0216,-0.0172,-0.0121,-0.0069,-0.0049,-0.0012,0.0015,0.0031,0.0073,0.009,0.0124,0.0164,0.0208,0.0237,0.0281,0.0341,0.0352,0.0365,0.0368,0.0371,0.0376,0.0406,0.0412,0.0351,0.0351,0.0351,0,0,-0.0203,-0.0164,-0.0138,-0.0069,-0.0037,0.0006,0.0002,0.0049,0.0081,0.0097,0.0154,0.018,0.0226,0.0285,0.0313,0.0308,0.0394,0.0375,0.0376,0.038,0.041,0.0415,0.042,0.0353,0.0353,0.0353,0,0,-0.0157,-0.0123,-0.0077,-0.0045,0.0004,0.0028,0.0038,0.009,0.0108,0.0165,0.0176,0.0214,0.0291,0.0322,0.0348,0.04,0.0407,0.0414,0.043,0.0459,0.0464,0.0468,0.0484,0.049,0.0418,0.0418,0.0418,0,-0.0147,-0.0081,-0.0054,-0.0009,0.0019,0.0035,0.008,0.011,0.017,0.0189,0.0183,0.0276,0.0309,0.0373,0.0385,0.0407,0.0418,0.0408,0.0461,0.0466,0.047,0.0486,0.0492,0.0419,0.0419,0.0419,0.0419,0,-0.0073,-0.0027,0.0004,0.0061,0.0093,0.0138,0.0169,0.0198,0.021,0.0234,0.029,0.0329,0.0379,0.0395,0.0409,0.0461,0.0456,0.0456,0.0445,0.0476,0.0491,0.0497,0.0419,0.0419,0.0419,0.0419,0,0,-0.0027,0.0041,0.0052,0.0076,0.0129,0.0165,0.0209,0.0257,0.028,0.032,0.0356,0.0419,0.0417,0.0446,0.0463,0.0489,0.0524,0.0485,0.0486,0.0489,0.058,0.0579,0.0586,0.0529,0.053,0.0531,0.0575,0,0.0023,0.0103,0.0126,0.0193,0.0234,0.0247,0.0285,0.0321,0.0343,0.038,0.0405,0.0447,0.0444,0.0461,0.0487,0.0514,0.0542,0.0511,0.0561,0.0562,0.0547,0.0594,0.0594,0.0634,0.0582,0.0583,0.0584,0,0.0093,0.0133,0.0203,0.0247,0.0265,0.0299,0.0343,0.0379,0.0418,0.0433,0.0463,0.0477,0.0521,0.0507,0.0567,0.0546,0.0567,0.0583,0.0585,0.059,0.0574,0.0598,0.0648,0.0653,0.0594,0.0593,0.0592,0,0.0115,0.0187,0.0237,0.0258,0.0312,0.0335,0.0358,0.0396,0.0423,0.0461,0.0478,0.0521,0.0544,0.0576,0.0599,0.0588,0.0656,0.0645,0.0667,0.0666,0.0681,0.0679,0.0733,0.0697,0.0697,0.0697,0.0696,0,0.0168,0.021,0.0248,0.0279,0.0325,0.035,0.0395,0.0418,0.0452,0.0486,0.05,0.0532,0.0562,0.0597,0.0615,0.066,0.0671,0.0682,0.0687,0.068,0.0679,0.0694,0.0691,0.0698,0.0698,0.0697,0.0697,0,0.0201,0.0229,0.0284,0.0329,0.0342,0.0373,0.0412,0.0441,0.0463,0.0506,0.0517,0.0552,0.0593,0.062,0.0673,0.0685,0.0734,0.0738,0.072,0.0722,0.0741,0.0738,0.0806,0.0815,0.0774,0.0774,0.0775,0,0.0232,0.0264,0.0312,0.0336,0.0359,0.0398,0.0424,0.0449,0.0475,0.052,0.0544,0.0586,0.0621,0.0686,0.0715,0.0755,0.0759,0.078,0.0765,0.0757,0.0757,0.0754,0.0756,0.0782,0.0782,0.0783,0.0783,0,0.0283,0.0294,0.0332,0.0373,0.0403,0.0437,0.0471,0.0489,0.052,0.0548,0.059,0.0617,0.067,0.0711,0.0753,0.0776,0.0783,0.0787,0.0794,0.0787,0.0775,0.0779,0.0725,0.0785,0.0785,0.0785,0.0785,0.0785,0.0315,0.0343,0.038,0.042,0.0447,0.0478,0.0506,0.0531,0.0567,0.0612,0.0624,0.0667,0.0702,0.0759,0.0782,0.0815,0.0813,0.0823,0.0825,0.0827,0.0826,0.077,0.0823,0.0823,0.0823,0.0823,0.0823,0,0.0365,0.0388,0.0425,0.0471,0.0501,0.0506,0.0543,0.0568,0.0606,0.0638,0.0671,0.0718,0.0757,0.0788,0.0827,0.0847,0.0852,0.0857,0.0855,0.0859,0.0828,0.0817,0.0852,0.0852,0.0852,0.0852,0.0852,0.0852,0.0394,0.044,0.0455,0.0514,0.0538,0.058,0.06,0.0627,0.0652,0.0704,0.0736,0.0756,0.0787,0.0828,0.0863,0.0871,0.0884,0.0887,0.0896,0.0865,0.0862,0.0859,0.0849,0.089,0.0891,0.0925,0.0925,0.0925]}]]